When you browse on this site, cookies collect data to enhance your experience and personalize the content and advertising you see.
Visit our Privacy Policy to learn more. By continuing to use the site, you agree to this use of cookies and data.
  • In United Kingdom
  • List of Countries
  • For 7 days
  • Water Temperature
  • Satellite Maps
  • Weather Map
  • Weather Widgets
  • user-avatar
    Login

    Hourly Weather Samak

    Today, 26 March, Tuesday

    Time Temperature Precipitation Wind Pressure Humidity
    00:00 +10°C° 0 mm 5 mps 674 mmHg 43%
    01:00 +10°C° 0 mm 5 mps 675 mmHg 41%
    02:00 +10°C° 0 mm 5 mps 674 mmHg 41%
    03:00 +10°C° 0 mm 5 mps 674 mmHg 40%
    04:00 +12°C° 0 mm 5 mps 674 mmHg 39%
    05:00 +12°C° 0 mm 5 mps 674 mmHg 41%
    06:00 +13°C° 0 mm 5 mps 674 mmHg 43%
    07:00 +13°C° 0 mm 5 mps 675 mmHg 45%
    08:00 +15°C° 0 mm 4 mps 675 mmHg 48%
    09:00 +17°C° 0 mm 4 mps 675 mmHg 51%
    10:00 +18°C° 0 mm 3 mps 675 mmHg 54%
    11:00 +19°C° 0.1 mm 3 mps 675 mmHg 53%
    12:00 +19°C° 0.1 mm 3 mps 675 mmHg 52%
    13:00 +19°C° 0.1 mm 4 mps 675 mmHg 51%
    14:00 +19°C° 0.1 mm 3 mps 674 mmHg 52%
    15:00 +18°C° 0.1 mm 3 mps 674 mmHg 53%
    16:00 +17°C° 0.1 mm 2 mps 674 mmHg 54%
    17:00 +16°C° 0.2 mm 2 mps 674 mmHg 55%
    18:00 +14°C° 0.2 mm 3 mps 674 mmHg 56%
    19:00 +13°C° 0.2 mm 3 mps 674 mmHg 57%
    20:00 +14°C° 0.8 mm 3 mps 674 mmHg 57%
    21:00 +14°C° 0.8 mm 4 mps 674 mmHg 57%
    22:00 +14°C° 0.8 mm 5 mps 674 mmHg 56%
    23:00 +14°C° 1.8 mm 5 mps 674 mmHg 60%

    Tomorrow, 27 March, Wednesday

    Time Temperature Precipitation Wind Pressure Humidity
    00:00 +13°C° 1.8 mm 5 mps 674 mmHg 64%
    01:00 +13°C° 1.8 mm 5 mps 674 mmHg 68%
    02:00 +14°C° 0.5 mm 4 mps 674 mmHg 68%
    03:00 +14°C° 0.5 mm 4 mps 674 mmHg 68%
    04:00 +14°C° 0.5 mm 4 mps 674 mmHg 68%
    05:00 +14°C° 0.7 mm 4 mps 674 mmHg 69%
    06:00 +15°C° 0.7 mm 4 mps 674 mmHg 69%
    07:00 +15°C° 0.7 mm 5 mps 673 mmHg 69%
    08:00 +17°C° 0.5 mm 4 mps 674 mmHg 67%
    09:00 +17°C° 0.5 mm 4 mps 674 mmHg 65%
    10:00 +18°C° 0.5 mm 3 mps 674 mmHg 62%
    11:00 +18°C° 1.3 mm 4 mps 674 mmHg 65%
    12:00 +17°C° 1.3 mm 4 mps 673 mmHg 67%
    13:00 +16°C° 1.3 mm 5 mps 673 mmHg 69%
    14:00 +18°C° 0.9 mm 4 mps 673 mmHg 67%
    15:00 +18°C° 0.9 mm 4 mps 673 mmHg 65%
    16:00 +19°C° 0.9 mm 4 mps 673 mmHg 63%
    17:00 +18°C° 1.6 mm 4 mps 673 mmHg 68%
    18:00 +17°C° 1.6 mm 3 mps 673 mmHg 72%
    19:00 +16°C° 1.6 mm 3 mps 673 mmHg 77%
    20:00 +16°C° 1.8 mm 3 mps 673 mmHg 75%
    21:00 +15°C° 1.8 mm 4 mps 673 mmHg 73%
    22:00 +14°C° 1.8 mm 4 mps 673 mmHg 71%
    23:00 +14°C° 0.5 mm 4 mps 673 mmHg 70%

    Day after tomorrow, 28 March, Thursday

    Time Temperature Precipitation Wind Pressure Humidity
    00:00 +14°C° 0.5 mm 3 mps 673 mmHg 69%
    01:00 +14°C° 0.5 mm 3 mps 673 mmHg 68%
    02:00 +15°C° 0.7 mm 2 mps 673 mmHg 69%
    03:00 +14°C° 0.7 mm 2 mps 673 mmHg 71%
    04:00 +14°C° 0.7 mm 2 mps 674 mmHg 72%
    05:00 +15°C° 0.4 mm 2 mps 674 mmHg 72%
    06:00 +15°C° 0.4 mm 2 mps 674 mmHg 72%
    07:00 +15°C° 0.4 mm 2 mps 675 mmHg 71%
    08:00 +16°C° 0.1 mm 2 mps 675 mmHg 70%
    09:00 +17°C° 0.1 mm 2 mps 676 mmHg 68%
    10:00 +18°C° 0.1 mm 2 mps 676 mmHg 67%
    11:00 +19°C° 0.3 mm 2 mps 676 mmHg 63%
    12:00 +19°C° 0.3 mm 2 mps 676 mmHg 60%
    13:00 +20°C° 0.3 mm 3 mps 676 mmHg 56%
    14:00 +20°C° 0.3 mm 2 mps 675 mmHg 57%
    15:00 +20°C° 0.3 mm 2 mps 675 mmHg 57%
    16:00 +19°C° 0.3 mm 2 mps 675 mmHg 57%
    17:00 +18°C° 0.2 mm 2 mps 674 mmHg 60%
    18:00 +17°C° 0.2 mm 2 mps 674 mmHg 64%
    19:00 +15°C° 0.2 mm 2 mps 674 mmHg 67%
    20:00 +14°C° 0.1 mm 3 mps 674 mmHg 62%
    21:00 +14°C° 0.1 mm 3 mps 673 mmHg 56%
    22:00 +14°C° 0.1 mm 4 mps 673 mmHg 51%
    23:00 +14°C° 0.8 mm 3 mps 673 mmHg 58%

    29 March, Friday

    Time Temperature Precipitation Wind Pressure Humidity
    00:00 +14°C° 0.8 mm 2 mps 672 mmHg 64%
    01:00 +14°C° 0.8 mm 1 mps 672 mmHg 71%
    02:00 +13°C° 3.5 mm 2 mps 672 mmHg 74%
    03:00 +12°C° 3.5 mm 3 mps 671 mmHg 76%
    04:00 +11°C° 3.5 mm 4 mps 671 mmHg 79%
    05:00 +12°C° 1 mm 3 mps 672 mmHg 78%
    06:00 +13°C° 1 mm 2 mps 672 mmHg 77%
    07:00 +14°C° 1 mm 1 mps 672 mmHg 76%
    08:00 +14°C° 1.3 mm 1 mps 673 mmHg 73%
    09:00 +15°C° 1.3 mm 2 mps 673 mmHg 70%
    10:00 +14°C° 1.3 mm 3 mps 673 mmHg 67%
    11:00 +15°C° 0.3 mm 2 mps 673 mmHg 67%
    12:00 +16°C° 0.3 mm 2 mps 673 mmHg 68%
    13:00 +16°C° 0.3 mm 1 mps 673 mmHg 68%
    14:00 +15°C° 1.3 mm 1 mps 673 mmHg 72%
    15:00 +15°C° 1.3 mm 1 mps 672 mmHg 76%
    16:00 +14°C° 1.3 mm 1 mps 672 mmHg 79%
    17:00 +13°C° 2.3 mm 2 mps 673 mmHg 83%
    18:00 +13°C° 2.3 mm 2 mps 673 mmHg 87%
    19:00 +12°C° 2.3 mm 2 mps 674 mmHg 91%
    20:00 +12°C° 2.7 mm 2 mps 674 mmHg 92%
    21:00 +10°C° 2.7 mm 2 mps 675 mmHg 93%
    22:00 +10°C° 2.7 mm 2 mps 675 mmHg 94%
    23:00 +9°C° 0.7 mm 2 mps 676 mmHg 91%

    30 March, Saturday

    Time Temperature Precipitation Wind Pressure Humidity
    00:00 +10°C° 0.7 mm 1 mps 676 mmHg 88%
    01:00 +10°C° 0.7 mm 1 mps 676 mmHg 85%
    02:00 +10°C° 0.2 mm 1 mps 677 mmHg 81%
    03:00 +9°C° 0.2 mm 1 mps 677 mmHg 77%
    04:00 +9°C° 0.2 mm 1 mps 678 mmHg 74%
    05:00 +10°C° 0 mm 1 mps 678 mmHg 70%
    06:00 +10°C° 0 mm 1 mps 679 mmHg 67%
    07:00 +10°C° 0 mm 0 mps 679 mmHg 64%
    08:00 +11°C° 0 mm 1 mps 679 mmHg 63%
    09:00 +12°C° 0 mm 1 mps 680 mmHg 61%
    10:00 +13°C° 0 mm 1 mps 680 mmHg 60%
    11:00 +14°C° 0 mm 1 mps 680 mmHg 59%
    12:00 +14°C° 0 mm 1 mps 679 mmHg 58%
    13:00 +15°C° 0 mm 1 mps 679 mmHg 57%
    14:00 +15°C° 0 mm 1 mps 679 mmHg 56%
    15:00 +15°C° 0 mm 1 mps 679 mmHg 54%
    16:00 +15°C° 0 mm 1 mps 678 mmHg 53%
    17:00 +14°C° 0 mm 1 mps 678 mmHg 56%
    18:00 +13°C° 0 mm 1 mps 678 mmHg 59%
    19:00 +12°C° 0 mm 1 mps 678 mmHg 62%
    20:00 +10°C° 0 mm 2 mps 678 mmHg 62%
    21:00 +10°C° 0 mm 2 mps 678 mmHg 62%
    22:00 +9°C° 0 mm 3 mps 678 mmHg 62%
    23:00 +9°C° 0 mm 3 mps 678 mmHg 61%

    31 March, Sunday

    Time Temperature Precipitation Wind Pressure Humidity
    00:00 +9°C° 0 mm 3 mps 677 mmHg 59%
    01:00 +9°C° 0 mm 3 mps 677 mmHg 57%
    02:00 +9°C° 0 mm 3 mps 677 mmHg 53%
    03:00 +9°C° 0 mm 3 mps 677 mmHg 49%
    04:00 +9°C° 0 mm 3 mps 677 mmHg 44%
    05:00 +9°C° 0 mm 3 mps 677 mmHg 44%
    06:00 +10°C° 0 mm 2 mps 678 mmHg 44%
    07:00 +12°C° 0 mm 2 mps 678 mmHg 44%
    08:00 +13°C° 0 mm 2 mps 678 mmHg 43%
    09:00 +15°C° 0 mm 2 mps 679 mmHg 42%
    10:00 +16°C° 0 mm 2 mps 679 mmHg 42%
    11:00 +16°C° 0 mm 2 mps 679 mmHg 44%
    12:00 +16°C° 0 mm 2 mps 679 mmHg 46%
    13:00 +16°C° 0 mm 2 mps 679 mmHg 49%
    14:00 +16°C° 0 mm 2 mps 678 mmHg 50%
    15:00 +16°C° 0 mm 1 mps 678 mmHg 51%
    16:00 +16°C° 0 mm 1 mps 678 mmHg 52%
    17:00 +15°C° 0 mm 2 mps 678 mmHg 54%
    18:00 +13°C° 0 mm 2 mps 678 mmHg 57%
    19:00 +12°C° 0 mm 2 mps 678 mmHg 59%
    20:00 +12°C° 0 mm 2 mps 678 mmHg 57%
    21:00 +10°C° 0 mm 3 mps 679 mmHg 55%
    22:00 +10°C° 0 mm 3 mps 679 mmHg 53%
    23:00 +10°C° 0 mm 3 mps 678 mmHg 52%
    Show more